Weather History for Louisburg, NC

Change the Weather History Date:

Friday, November 9, 2012

  Actual Average (KRDU) Record (KRDU)
Temperature  
Mean Temperature 45 °F 54 °F  
Max Temperature 60 °F 66 °F 83 °F (1986)
Min Temperature 30 °F 43 °F 16 °F (1976)
Degree Days  
Heating Degree Days 20 11  
Month to date heating degree days 91  
Since 1 July heating degree days 280  
Cooling Degree Days 0 0  
Month to date cooling degree days 1  
Year to date cooling degree days 1721  
Moisture  
Dew Point 31 °F    
Average Humidity 63    
Maximum Humidity 100    
Minimum Humidity 31    
Precipitation  
Precipitation 0.00 in 0.11 in 3.80 in (1962)
Month to date precipitation 0.96  
Year to date precipitation 38.11  
Sea Level Pressure  
Sea Level Pressure 30.21 in    
Wind  
Wind Speed 1 mph (WNW)    
Max Wind Speed 7 mph    
Max Gust Speed -    
Visibility 10 miles    
Events      
T = Trace of Precipitation, MM = Missing Value Source: NWS Daily Summary

Daily Weather History Graph

Daily Weather History Graph

Search for Another Location

Airport:

Trip Planner

Search our weather history database for the weather conditions in past years. The results will help you decide how hot, cold, wet, or windy it might be!

Date:

Astronomy

Nov. 09, 2012 Rise Set
Actual Time 6:44 AM EST 5:09 PM EST
Civil Twilight 6:17 AM EST 5:36 PM EST
Nautical Twilight 5:46 AM EST 6:07 PM EST
Astronomical Twilight 5:16 AM EST 6:37 PM EST
Moon 1:49 AM EST (11/9) 2:14 PM EST (11/9)
Length of Visible Light 11h 19m
Length of Day
10h 25m
Waning Crescent, 23% of the Moon is Illuminated
Nov 9
Waning Crescent
Nov 13
New
Nov 20
First Quarter
Nov 28
Full
Dec 6
Last Quarter

Hourly Weather History & Observations

Time (EST) Temp. Windchill Dew Point Humidity Pressure Visibility Wind Dir Wind Speed Gust Speed Precip Events Conditions
12:15 AM 35.6 °F - 28.4 °F 75% 30.11 in 10.0 mi Calm Calm - N/A   Clear
12:35 AM 35.6 °F - 26.6 °F 70% 30.11 in 10.0 mi Calm Calm - N/A   Clear
12:55 AM 37.4 °F - 23.0 °F 56% 30.11 in 10.0 mi Calm Calm - N/A   Clear
1:15 AM 37.4 °F - 24.8 °F 60% 30.11 in 10.0 mi Calm Calm - N/A   Clear
1:35 AM 37.4 °F - 23.0 °F 56% 30.12 in 10.0 mi Calm Calm - N/A   Clear
1:55 AM 33.8 °F - 26.6 °F 75% 30.12 in 10.0 mi Calm Calm - N/A   Clear
2:15 AM 32.0 °F - 26.6 °F 80% 30.13 in 10.0 mi Calm Calm - N/A   Clear
2:35 AM 32.0 °F - 26.6 °F 80% 30.13 in 10.0 mi Calm Calm - N/A   Clear
2:55 AM 32.0 °F - 26.6 °F 80% 30.13 in 10.0 mi Calm Calm - N/A   Clear
3:15 AM 33.8 °F - 24.8 °F 70% 30.14 in 10.0 mi Calm Calm - N/A   Clear
3:35 AM 35.6 °F - 24.8 °F 65% 30.14 in 10.0 mi Calm Calm - N/A   Clear
3:55 AM 37.4 °F - 24.8 °F 60% 30.15 in 10.0 mi Calm Calm - N/A   Clear
4:15 AM 37.4 °F - 24.8 °F 60% 30.15 in 10.0 mi Calm Calm - N/A   Clear
4:35 AM 33.8 °F - 26.6 °F 75% 30.16 in 10.0 mi Calm Calm - N/A   Clear
4:55 AM 33.8 °F - 26.6 °F 75% 30.17 in 10.0 mi Calm Calm - N/A   Clear
5:15 AM 32.0 °F - 26.6 °F 80% 30.17 in 10.0 mi Calm Calm - N/A   Clear
5:35 AM 32.0 °F - 28.4 °F 87% 30.18 in 10.0 mi Calm Calm - N/A   Clear
5:55 AM 30.2 °F - 28.4 °F 93% 30.18 in 10.0 mi Calm Calm - N/A   Clear
6:15 AM 32.0 °F - 28.4 °F 87% 30.18 in 10.0 mi Calm Calm - N/A   Clear
6:55 AM 32.0 °F - 28.4 °F 87% 30.20 in 10.0 mi Calm Calm - N/A   Clear
7:15 AM 32.0 °F - 28.4 °F 87% 30.22 in 10.0 mi Calm Calm - N/A   Clear
7:35 AM 35.6 °F - 28.4 °F 75% 30.23 in 10.0 mi Calm Calm - N/A   Clear
7:55 AM 39.2 °F - 28.4 °F 65% 30.24 in 10.0 mi Calm Calm - N/A   Clear
8:15 AM 41.0 °F 39.0 °F 28.4 °F 61% 30.25 in 10.0 mi WNW 3.5 mph - N/A   Clear
8:35 AM 42.8 °F 41.1 °F 28.4 °F 57% 30.26 in 10.0 mi WNW 3.5 mph - N/A   Clear
8:55 AM 44.6 °F 43.1 °F 30.2 °F 57% 30.27 in 10.0 mi NNW 3.5 mph - N/A   Clear
9:15 AM 46.4 °F 45.2 °F 30.2 °F 53% 30.27 in 10.0 mi NNW 3.5 mph - N/A   Clear
9:55 AM 50.0 °F - 30.2 °F 47% 30.27 in 10.0 mi NW 3.5 mph - N/A   Clear
10:15 AM 51.8 °F - 30.2 °F 44% 30.27 in 10.0 mi North 6.9 mph - N/A   Clear
10:35 AM 51.8 °F - 30.2 °F 44% 30.27 in 10.0 mi NNE 4.6 mph - N/A   Clear
10:55 AM 53.6 °F - 30.2 °F 41% 30.27 in 10.0 mi NNE 4.6 mph - N/A   Clear
11:15 AM 53.6 °F - 30.2 °F 41% 30.26 in 10.0 mi NNW 3.5 mph - N/A   Clear
11:35 AM 55.4 °F - 30.2 °F 38% 30.25 in 10.0 mi ENE 3.5 mph - N/A   Clear
11:55 AM 55.4 °F - 30.2 °F 38% 30.24 in 10.0 mi SW 3.5 mph - N/A   Clear
12:15 PM 59.0 °F - 30.2 °F 34% 30.23 in 10.0 mi Calm Calm - N/A   Clear
12:35 PM 59.0 °F - 28.4 °F 31% 30.23 in 10.0 mi Calm Calm - N/A   Clear
12:55 PM 59.0 °F - 28.4 °F 31% 30.23 in 10.0 mi Calm Calm - N/A   Clear
1:15 PM 59.0 °F - 30.2 °F 34% 30.22 in 10.0 mi Calm Calm - N/A   Clear
1:35 PM 59.0 °F - 30.2 °F 34% 30.21 in 10.0 mi Calm Calm - N/A   Clear
1:55 PM 60.8 °F - 32.0 °F 34% 30.21 in 10.0 mi NW 3.5 mph - N/A   Clear
2:15 PM 60.8 °F - 30.2 °F 31% 30.21 in 10.0 mi WSW 4.6 mph - N/A   Clear
2:35 PM 60.8 °F - 30.2 °F 31% 30.20 in 10.0 mi SW 3.5 mph - N/A   Clear
2:55 PM 60.8 °F - 32.0 °F 34% 30.20 in 10.0 mi Calm Calm - N/A   Clear
3:15 PM 60.8 °F - 32.0 °F 34% 30.20 in 10.0 mi West 3.5 mph - N/A   Clear
3:35 PM 60.8 °F - 30.2 °F 31% 30.20 in 10.0 mi WSW 3.5 mph - N/A   Clear
3:55 PM 60.8 °F - 32.0 °F 34% 30.21 in 10.0 mi Calm Calm - N/A   Clear
4:15 PM 60.8 °F - 32.0 °F 34% 30.21 in 10.0 mi Calm Calm - N/A   Clear
4:35 PM 57.2 °F - 32.0 °F 38% 30.21 in 10.0 mi Calm Calm - N/A   Clear
4:55 PM 51.8 °F - 35.6 °F 54% 30.21 in 10.0 mi Calm Calm - N/A   Clear
5:15 PM 50.0 °F - 35.6 °F 58% 30.21 in 10.0 mi Calm Calm - N/A   Clear
5:35 PM 46.4 °F - 35.6 °F 66% 30.21 in 10.0 mi Calm Calm - N/A   Clear
5:55 PM 46.4 °F - 35.6 °F 66% 30.22 in 10.0 mi Calm Calm - N/A   Clear
6:15 PM 44.6 °F - 35.6 °F 71% 30.22 in 10.0 mi Calm Calm - N/A   Clear
6:35 PM 44.6 °F - 35.6 °F 71% 30.22 in 10.0 mi Calm Calm - N/A   Clear
6:55 PM 44.6 °F - 35.6 °F 71% 30.22 in 10.0 mi Calm Calm - N/A   Clear
7:15 PM 42.8 °F - 35.6 °F 76% 30.23 in 10.0 mi Calm Calm - N/A   Clear
7:35 PM 42.8 °F - 35.6 °F 76% 30.23 in 10.0 mi Calm Calm - N/A   Clear
7:55 PM 42.8 °F - 35.6 °F 76% 30.23 in 10.0 mi Calm Calm - N/A   Clear
8:15 PM 41.0 °F - 35.6 °F 81% 30.24 in 10.0 mi Calm Calm - N/A   Clear
8:35 PM 41.0 °F - 35.6 °F 81% 30.24 in 10.0 mi Calm Calm - N/A   Clear
8:55 PM 41.0 °F - 35.6 °F 81% 30.25 in 10.0 mi Calm Calm - N/A   Clear
9:15 PM 39.2 °F - 35.6 °F 87% 30.26 in 10.0 mi Calm Calm - N/A   Clear
9:35 PM 39.2 °F - 35.6 °F 87% 30.26 in 10.0 mi Calm Calm - N/A   Clear
9:55 PM 37.4 °F - 35.6 °F 93% 30.27 in 10.0 mi Calm Calm - N/A   Clear
10:15 PM 37.4 °F - 35.6 °F 93% 30.27 in 10.0 mi Calm Calm - N/A   Clear
10:35 PM 41.0 °F 39.0 °F 33.8 °F 76% 30.27 in 10.0 mi SSW 3.5 mph - N/A   Clear
10:55 PM 44.6 °F 43.1 °F 33.8 °F 66% 30.27 in 10.0 mi SSW 3.5 mph - N/A   Clear
11:15 PM 41.0 °F - 33.8 °F 76% 30.27 in 10.0 mi Calm Calm - N/A   Clear
11:35 PM 37.4 °F - 35.6 °F 93% 30.27 in 10.0 mi Calm Calm - N/A   Clear
11:55 PM 35.6 °F - 35.6 °F 100% 30.27 in 10.0 mi Calm Calm - N/A   Clear